Regional Weather Roundup
Issued by NWS

Home | Current Version | Previous Version | Text Only | Print | Product List | Glossary Off
Versions: 1 2 3 4 5 6 7 8 9 10 11 12 13 14 15 16 17 18 19 20 21 22 23 24 25 26 27 28 29 30 31 32 33 34 35 36 37 38 39 40 41 42 43 44 45 46 47 48 49 50

000
ASUS43 KMPX 262310
RWRMN
WEATHER ROUNDUP FOR MINNESOTA
NATIONAL WEATHER SERVICE TWIN CITIES/CHANHASSEN MN
600 PM CDT MON JUN 26 2017


NOTE: "FAIR" INDICATES FEW OR NO CLOUDS BELOW 12,000 FEET WITH NO
SIGNIFICANT WEATHER AND/OR OBSTRUCTIONS TO VISIBILITY. N/A MEANS
CURRENT SKY AND/OR WEATHER CONDITIONS ARE NOT AVAILABLE.

MNZ060>063-068>070-270000-
   Twin Cities Metro

CITY           SKY/WX    TMP DP  RH WIND       PRES   REMARKS
TWIN CITIES    PTSUNNY   68  43  40 N9        30.11S
ST PAUL        MOSUNNY   68  45  43 N8        30.11F
CRYSTAL        PTSUNNY   70  43  37 NE8       30.10S
BLAINE         MOSUNNY   70  45  40 N12       30.11F
LAKEVILLE      PTSUNNY   70  45  40 NW10      30.10F
EDEN PRAIRIE   PTSUNNY   74  43  32 NW10G17   30.10S
SOUTH ST PAUL  MOSUNNY   69  41  36 N9        30.11S
LAKE ELMO      FAIR      68  45  42 NW5       30.12S
$$
MNZ001>005-007-008-013>017-022>024-027-028-270000-
   Northwest Minnesota

CITY           SKY/WX    TMP DP  RH WIND       PRES   REMARKS
BEMIDJI        MOSUNNY   69  38  33 NW13      30.10S
HALLOCK        SUNNY     73  39  29 NW6       30.07F
ROSEAU         SUNNY     72  46  40 NW9       30.06F
WARROAD        MOSUNNY   70  48  46 W8G20     30.06F
THIEF RVR FALL MOSUNNY   71  41  33 NW9       30.10F
CROOKSTON      SUNNY     72  39  30 NW5       30.10F
FOSSTON        MOSUNNY   70  39  32 W8        30.11F
DETROIT LAKES  SUNNY     70  36  28 NW7       30.14S
MOORHEAD       MOSUNNY   73  36  25 W8        30.11F
PARK RAPIDS    MOSUNNY   71  36  27 NW13      30.11F
MAHNOMEN       FAIR      67  39  34 NW9       30.11F
$$
MNZ006-009>011-018-025>026-270000-
   North Central Minnesota

CITY           SKY/WX    TMP DP  RH WIND       PRES   REMARKS
BAUDETTE       SUNNY     69  46  43 NW10      30.05F
FLAG ISLAND    SUNNY     68  45  42 NW10      30.03F
INTL FALLS     MOSUNNY   70  43  37 NW12G23   30.03F
WASKISH        CLOUDY    68  48  49 W10       30.06F
BIG FORK       MOSUNNY   70  43  37 W6        30.06F
LONGVILLE      SUNNY     68  41  37 W10       30.10S
GRAND RAPIDS   MOSUNNY   67  40  37 NW17      30.09F
CRANE LAKE     MOSUNNY   66  45  45 N9        30.04F
ORR            MOSUNNY   64  45  48 NW5       30.02S
COOK           SUNNY     66  48  52 W6        30.04F
WALKER         FAIR      68  42  38 NW12      30.10F
$$
MNZ012-019>021-037-270000-
   Northeast Minnesota

CITY           SKY/WX    TMP DP  RH WIND       PRES   REMARKS
DULUTH         CLOUDY    65  49  56 NW8       30.07S
ELY            MOSUNNY   61  46  59 W10       30.04F
HIBBING        CLOUDY    63  46  54 NW9       30.06F
EVELETH        MOSUNNY   61  46  57 N5        30.07R
DULUTH HARBOR  CLOUDY    66  48  52 NW16G23   30.07R
TWO HARBORS    DRIZZLE   61  52  72 W8        30.05R
SILVER BAY     MOSUNNY   64  48  55 W6        30.01F
GRAND MARAIS     N/A     52  45  77 CALM      30.00F
G MARAIS ARPRT MOSUNNY   63  39  42 NW5       30.01F
$$
MNZ029>031-032-039>041-046>048-054>057-064-270000-
   West Central Minnesota

CITY           SKY/WX    TMP DP  RH WIND       PRES   REMARKS
FERGUS FALLS   MOSUNNY   68  41  37 NW5       30.11F
WHEATON        SUNNY     70  36  28 N5        30.16S
MORRIS         MOSUNNY   72  39  30 N7        30.14S
ALEXANDRIA     SUNNY     69  39  33 NW9       30.15F
ELBOW LAKE     FAIR      68  42  38 W8        30.14F
WADENA         PTSUNNY   70  45  40 N6        30.12F
GLENWOOD       SUNNY     70  39  32 NW10      30.15S
APPLETON       SUNNY     72  34  25 N8        30.14S
BENSON         MOSUNNY   72  37  28 NE7       30.15F
ORTONVILLE     SUNNY     70  39  32 W6        30.14F
MADISON        MOSUNNY   72  41  33 NE6       30.15S
WILLMAR        FAIR      72  43  35 N9        30.15S
$$
MNZ033>034-036-042>043-049>051-058-059-270000-
   Central Minnesota

CITY           SKY/WX    TMP DP  RH WIND       PRES   REMARKS
ST CLOUD       MOSUNNY   69  42  37 N8        30.11F
SAUK CENTRE    FAIR      69  42  37 NW10      30.13F
PAYNESVILLE    MOSUNNY   69  39  33 N6        30.13F
AITKIN         SUNNY     66  43  42 NW8       30.08F
PINE RIVER     MOSUNNY   68  43  40 NW9G16    30.13F
BRAINERD       MOSUNNY   69  40  34 NW13      30.10F
STAPLES        PTSUNNY   70  36  28 W14       30.12S
LONG PRAIRIE   FAIR      68  43  40 W7        30.13F
LITTLE FALLS   MOSUNNY   68  37  32 N5        30.12F
LITCHFIELD     SUNNY     72  43  35 NW6       30.13F
BUFFALO        PTSUNNY   69  40  34 CALM      30.12F
MAPLE LAKE     MOSUNNY   70  44  38 NW8G17    30.13S
HUTCHINSON     SUNNY     71  44  37 NW7       30.14S
$$
MNZ037-044-045-052-053-270000-
   East Central Minnesota

CITY           SKY/WX    TMP DP  RH WIND       PRES   REMARKS
PRINCETON      MOSUNNY   70  45  40 N6        30.11S
MORA           SUNNY     64  41  42 NW12G17   30.11F
CAMBRIDGE      MOSUNNY   70  48  46 NW5       30.10S
RUSH CITY      MOSUNNY   68  45  42 NW7       30.10F
MOOSE LAKE     SUNNY     68  43  40 NW5       30.06F
HINCKLEY       CLOUDY    63  45  51 N10G24    30.09F
CLOQUET        MOSUNNY   64  43  45 NW8       30.07F
MCGREGOR       PTSUNNY   70  41  35 NW14      30.08F
$$
MNZ071>073-080-081-089-090-097-098-270000-
   Southwest Minnesota

CITY           SKY/WX    TMP DP  RH WIND       PRES   REMARKS
MONTEVIDEO     PTSUNNY   73  43  33 NE7       30.15S
GRANITE FALLS  PTSUNNY   72  42  34 NW8       30.15F
CANBY          SUNNY     72  37  28 CALM      30.16F
MARSHALL       SUNNY     69  40  34 NE6       30.15F
REDWOOD FALLS  MOSUNNY   71  39  31 NW9       30.13F
OLIVIA         SUNNY     70  41  35 N9        30.13F
PIPESTONE      SUNNY     70  36  28 N6        30.16S
WINDOM         SUNNY     70  37  30 N6        30.15S
WORTHINGTON    SUNNY     68  40  35 N7        30.16F
JACKSON        SUNNY     68  36  30 N3        30.15S
TRACY          SUNNY     69  42  36 N5        30.15F
SLAYTON        SUNNY     67  37  32 N6        30.16S
$$
MNZ065>067-074>077-082>085-091>093-270000-
   South Central Minnesota

CITY           SKY/WX    TMP DP  RH WIND       PRES   REMARKS
MANKATO        PTSUNNY   69  40  34 N7        30.13F
NEW ULM        MOSUNNY   66  37  34 N8        30.13S
ST JAMES       SUNNY     70  39  32 N8        30.14F
FAIRMONT       SUNNY     69  41  36 N9        30.14S
GLENCOE        PTSUNNY   69  46  43 N6        30.12S
FARIBAULT      SUNNY     70  41  35 NW10      30.12S
OWATONNA       MOSUNNY   68  43  40 NW8       30.12S
WASECA         PTSUNNY   70  41  35 NW9       30.14S
ALBERT LEA     SUNNY     70  37  30 NW8       30.13S
$$
MNZ078>079-086>088-094>096-270000-
   Southeast Minnesota

CITY           SKY/WX    TMP DP  RH WIND       PRES   REMARKS
ROCHESTER      MOSUNNY   68  43  40 NW12      30.11F
RED WING       CLOUDY    64  45  48 NE8       30.10S
STANTON        PTSUNNY   68  44  41 N6        30.10S
DODGE CENTER   MOSUNNY   66  39  37 NW8       30.12S
WINONA         SUNNY     70  45  40 NW14      30.09F
AUSTIN         SUNNY     66  39  37 NW10      30.12S
PRESTON        MOSUNNY   65  42  43 N12       30.11F
$$
ABBREVIATIONS USED IN REMARKS
   TC - TEMPERATURES IN CELSIUS
  WCI - WIND CHILL INDEX
   HX - HEAT INDEX
  VSB - VISIBILITY
$$




USA.gov is the U.S. government's official web portal to all federal, state and local government web resources and services.